EW1931 Weather Reports


time (UTC)temp
C
wind
direction
speed
KPH
gust
KPH
rain 1hr
cm
rain 24hr
cm
rain mn
cm
humidity
%
barometer
mb
20260903111533 7 156 12.9 16.1 0.00 0.10 0.10 78 1004.1
20260903110030 7 169 9.7 14.5 0.00 0.10 0.10 78 1004.0
20260903104508 8 226 8.0 11.3 0.00 0.10 0.10 75 1003.9
20260903103012 9 157 11.3 17.7 0.00 0.10 0.10 72 1004.2
20260903101553 9 230 8.0 9.7 0.00 0.10 0.10 73 1003.9
20260903100050 8 230 6.4 8.0 0.00 0.10 0.10 73 1003.9
20260903094536 8 230 3.2 4.8 0.00 0.10 0.10 74 1003.8
20260903093040 8 230 3.2 6.4 0.00 0.10 0.10 73 1003.9
20260903091512 10 230 4.8 6.4 0.00 0.10 0.10 71 1003.8
20260903090025 10 230 4.8 6.4 0.00 0.10 0.10 71 1003.9
20260903084554 9 230 6.4 8.0 0.00 0.10 0.10 75 1003.8
20260903083056 8 278 4.8 11.3 0.00 0.10 0.10 76 1003.6
20260903081539 8 281 8.0 11.3 0.00 0.10 0.10 77 1003.5
20260903080034 8 265 6.4 9.7 0.00 0.10 0.10 78 1003.6
20260903074513 8 267 6.4 9.7 0.00 0.10 0.10 76 1003.5
20260903073023 9 213 9.7 11.3 0.00 0.10 0.10 74 1003.5
20260903071559 10 202 11.3 12.9 0.00 0.10 0.10 73 1003.5
20260903070050 10 180 14.5 16.1 0.00 0.10 0.10 74 1003.7
20260903064540 10 177 16.1 22.5 0.00 0.10 0.10 74 1003.5
20260903063032 10 184 16.1 20.9 0.00 0.10 0.10 74 1003.4
20260903061516 10 176 17.7 19.3 0.00 0.10 0.10 72 1003.2
20260903060013 10 196 12.9 16.1 0.00 0.10 0.10 75 1003.6
20260903054601 10 204 11.3 12.9 0.00 0.10 0.10 76 1003.9
20260903053056 10 207 11.3 16.1 0.00 0.10 0.10 75 1004.2
20260903051554 10 216 9.7 12.9 0.00 0.10 0.10 76 1004.1
20260903050050 11 179 9.7 11.3 0.00 0.10 0.10 73 1003.9
20260903044554 11 13 9.7 12.9 0.00 0.10 0.10 72 1004.0
20260903043049 11 13 8.0 12.9 0.00 0.10 0.10 75 1004.0
20260903041547 11 13 9.7 14.5 0.00 0.10 0.10 74 1003.8
20260903040044 12 13 9.7 14.5 0.00 0.10 0.10 74 1004.0
20260903034530 12 13 12.9 16.1 0.00 0.10 0.10 74 1004.0
20260903033036 12 13 17.7 20.9 0.00 0.10 0.10 73 1003.9
20260903031634 13 14 16.1 24.1 0.00 0.10 0.10 72 1003.8
20260903030101 13 14 22.5 32.2 0.00 0.10 0.10 70 1003.6
20260903024540 13 136 27.4 37.0 0.00 0.10 0.10 69 1002.8
20260903023038 15 244 22.5 33.8 0.00 0.10 0.10 66 1002.6
20260903021518 16 233 35.4 48.3 0.00 0.10 0.10 61 1002.5
20260903020017 15 218 24.1 35.4 0.00 0.10 0.10 63 1002.3
20260903014601 16 204 25.7 33.8 0.00 0.10 0.10 61 1002.8
20260903013100 17 194 22.5 32.2 0.00 0.10 0.10 57 1002.7
20260903011542 17 174 11.3 25.7 0.00 0.10 0.10 60 1003.2
20260903010045 17 181 8.0 12.9 0.00 0.10 0.10 59 1003.3
20260903004538 17 159 9.7 20.9 0.00 0.10 0.10 64 1003.5
20260903003025 16 45 17.7 29.0 0.00 0.10 0.10 60 1002.7
20260903001505 16 29 22.5 30.6 0.00 0.10 0.10 65 1002.4
20260903000005 16 16 25.7 43.5 0.03 0.10 0.10 64 1002.9
20260902234558 15 261 30.6 51.5 0.08 0.10 0.10 65 1003.3
20260902233047 15 247 35.4 48.3 0.10 0.10 0.10 68 1003.6
20260902231527 15 231 43.5 56.3 0.10 0.10 0.10 72 1003.4
20260902230024 15 235 56.3 90.1 0.08 0.08 0.08 69 1002.9
20260902224509 24 204 25.7 48.3 0.03 0.03 0.03 40 1000.6
20260902223009 27 176 19.3 29.0 0.00 0.00 0.00 27 999.4
20260902221507 28 155 17.7 25.7 0.00 0.00 0.00 26 999.1
20260902220008 28 165 16.1 22.5 0.00 0.00 0.00 26 999.2
20260902214506 28 215 24.1 30.6 0.00 0.00 0.00 25 999.3
20260902213014 30 150 22.5 41.8 0.00 0.00 0.00 24 999.1
20260902211505 30 167 16.1 33.8 0.00 0.00 0.00 24 999.4
20260902210100 29 157 24.1 37.0 0.00 0.00 0.00 26 999.6
20260902204542 28 124 8.0 24.1 0.00 0.00 0.00 28 1000.0
20260902203046 28 95 22.5 33.8 0.00 0.00 0.00 27 1000.4
20260902201518 28 124 17.7 25.7 0.00 0.00 0.00 29 1000.5
20260902200015 27 169 16.1 27.4 0.00 0.00 0.00 30 1000.7
20260902194552 27 163 17.7 25.7 0.00 0.00 0.00 30 1000.8
20260902193054 26 196 14.5 29.0 0.00 0.00 0.00 31 1001.0
20260902191544 26 142 20.9 27.4 0.00 0.00 0.00 32 1001.1
20260902190029 26 176 11.3 29.0 0.00 0.00 0.00 33 1001.2
20260902184516 26 213 14.5 25.7 0.00 0.00 0.00 34 1001.4
20260902183009 26 189 20.9 25.7 0.00 0.00 0.00 34 1001.5
20260902181550 26 196 25.7 32.2 0.00 0.00 0.00 33 1001.5
20260902180048 26 178 17.7 33.8 0.00 0.00 0.00 35 1001.8
20260902174527 25 195 24.1 33.8 0.00 0.00 0.00 35 1002.0
20260902173024 25 201 20.9 37.0 0.00 0.00 0.00 37 1002.0
20260902171503 24 198 24.1 32.2 0.00 0.00 0.00 39 1002.3
20260902170001 24 218 22.5 32.2 0.00 0.00 0.00 40 1002.3
20260902164542 23 196 12.9 20.9 0.00 0.00 0.00 42 1002.4
20260902163048 22 180 11.3 17.7 0.00 0.00 0.00 44 1002.4
20260902161518 21 182 8.0 11.3 0.00 0.00 0.00 46 1002.4
20260902160017 21 205 9.7 14.5 0.00 0.00 0.00 47 1002.5
20260902154558 20 216 11.3 14.5 0.00 0.00 0.00 48 1002.8
20260902153109 20 211 9.7 14.5 0.00 0.00 0.00 50 1002.9
20260902151543 19 202 9.7 14.5 0.00 0.00 0.00 51 1003.0
20260902150037 18 238 9.7 14.5 0.00 0.00 0.00 52 1003.1
20260902144521 17 185 11.3 14.5 0.00 0.00 0.00 55 1003.4
20260902143018 17 193 8.0 12.9 0.00 0.00 0.00 55 1003.6
20260902141502 17 205 8.0 9.7 0.00 0.00 0.00 57 1003.6
20260902140100 16 210 4.8 6.4 0.00 0.00 0.00 59 1003.7
20260902134601 15 210 3.2 6.4 0.00 0.00 0.00 60 1003.7
20260902133042 13 168 4.8 8.0 0.00 0.00 0.00 64 1003.7
20260902131541 12 168 3.2 8.0 0.00 0.00 0.00 66 1003.8
20260902130023 12 184 8.0 12.9 0.00 0.00 0.00 66 1004.0
20260902124521 13 185 12.9 20.9 0.00 0.00 0.00 63 1003.9
20260902123002 13 207 6.4 11.3 0.00 0.00 0.00 63 1003.4
20260902121502 13 306 4.8 11.3 0.00 0.00 0.00 63 1003.3
20260902120056 13 288 9.7 14.5 0.00 0.00 0.00 62 1003.4
20260902114542 14 290 11.3 16.1 0.00 0.00 0.00 60 1003.4
20260902113024 13 269 12.9 16.1 0.00 0.00 0.00 62 1003.7